TimePDT,TemperatureF,Dew PointF,Humidity,Sea Level PressureIn,VisibilityMPH,Wind Direction,Wind SpeedMPH,Gust SpeedMPH,PrecipitationIn,Events,Conditions,WindDirDegrees,DateUTC
12:56 AM,37.9,17.1,43,30.30,10.0,SSE,6.9,-,N/A,,Clear,160,2014-03-16 07:56:00
1:56 AM,39.9,18.0,41,30.30,10.0,SE,6.9,-,N/A,,Clear,130,2014-03-16 08:56:00
2:56 AM,36.0,18.0,48,30.29,10.0,WSW,3.5,-,N/A,,Clear,240,2014-03-16 09:56:00
3:56 AM,37.9,18.0,45,30.28,10.0,South,6.9,-,N/A,,Clear,170,2014-03-16 10:56:00
4:56 AM,37.0,17.1,44,30.28,10.0,SSW,5.8,-,N/A,,Clear,200,2014-03-16 11:56:00
5:56 AM,37.9,16.0,41,30.28,10.0,South,4.6,-,N/A,,Clear,180,2014-03-16 12:56:00
6:56 AM,35.1,17.1,48,30.27,10.0,South,5.8,-,N/A,,Clear,170,2014-03-16 13:56:00
7:56 AM,39.0,18.0,43,30.28,10.0,SE,5.8,-,N/A,,Clear,130,2014-03-16 14:56:00
8:56 AM,45.0,18.0,34,30.28,10.0,SSW,4.6,-,N/A,,Clear,210,2014-03-16 15:56:00
9:56 AM,57.0,17.1,21,30.27,10.0,South,9.2,-,N/A,,Clear,170,2014-03-16 16:56:00
10:56 AM,62.1,14.0,15,30.25,10.0,South,11.5,-,N/A,,Clear,170,2014-03-16 17:56:00
11:01 AM,63.0,14.0,15,30.38,10.0,South,11.5,-,N/A,,Mostly Cloudy,180,2014-03-16 18:01:00
11:56 AM,66.0,14.0,13,30.23,10.0,South,6.9,-,N/A,,Mostly Cloudy,180,2014-03-16 18:56:00
12:56 PM,70.0,14.0,12,30.20,10.0,SSW,9.2,-,N/A,,Mostly Cloudy,210,2014-03-16 19:56:00
1:56 PM,72.0,12.9,10,30.16,10.0,Variable,4.6,-,N/A,,Overcast,0,2014-03-16 20:56:00
2:56 PM,73.0,12.0,10,30.12,10.0,SSE,6.9,-,N/A,,Overcast,160,2014-03-16 21:56:00
3:56 PM,75.0,10.9,9,30.09,10.0,SSW,6.9,-,N/A,,Overcast,200,2014-03-16 22:56:00
4:56 PM,75.0,12.0,9,30.05,10.0,SW,8.1,20.7,N/A,,Overcast,230,2014-03-16 23:56:00
5:56 PM,73.9,7.0,8,30.03,10.0,West,11.5,-,N/A,,Overcast,270,2014-03-17 00:56:00
6:56 PM,71.1,10.0,9,30.02,10.0,West,19.6,-,N/A,,Clear,280,2014-03-17 01:56:00
7:56 PM,66.0,7.0,10,30.01,10.0,WSW,21.9,27.6,N/A,,Clear,250,2014-03-17 02:56:00
8:56 PM,64.0,16.0,16,30.01,10.0,West,21.9,27.6,N/A,,Clear,260,2014-03-17 03:56:00
9:56 PM,61.0,17.1,18,30.01,10.0,WSW,10.4,-,N/A,,Clear,250,2014-03-17 04:56:00
10:56 PM,57.0,17.1,21,29.98,10.0,SW,8.1,-,N/A,,Clear,220,2014-03-17 05:56:00
11:56 PM,61.0,10.9,14,29.94,10.0,SW,19.6,-,N/A,,Clear,230,2014-03-17 06:56:00